This demonstration page uses our WeatherBlox Daily Observations layout. Learn more.

Hourly Observations for October 21, 2019

Temp ( °F °C ) Dew Point ( °F °C ) Humidity (%) Winds ( mph kmh ) Pressure ( in mb ) Visibility ( mi km ) Precip ( " mm )
12:54 am 00:54 Clear 51 10.6 33 0.6 50 50 WSW 13 20 29.47 998 10 16.09344 0 0
1:54 am 01:54 Clear 49 9.4 34 1.1 56 56 WSW 12 19 29.44 997 10 16.09344 0 0
2:54 am 02:54 Clear 47 8.3 34 1.1 61 61 WSW 12 19 29.44 997 10 16.09344 0 0
3:54 am 03:54 Clear 45 7.2 34 1.1 66 66 WSW 16 26 29.44 997 10 16.09344 0 0
4:54 am 04:54 Clear 44 6.7 36 2.2 73 73 WSW 14 22 29.44 997 10 16.09344 0 0
5:54 am 05:54 Clear 43 6.1 36 2.2 76 76 W 12 19 29.44 997 10 16.09344 0 0
6:54 am 06:54 Clear 43 6.1 34 1.1 71 71 W 15 24 29.44 997 10 16.09344 0 0
7:34 am 07:34 Mostly Cloudy 42 5.6 34 1.1 73 73 W 12 19 29.47 998 10 16.09344 0 0
7:54 am 07:54 Cloudy 42 5.6 34 1.1 73 73 W 10 17 29.41 996 10 16.09344 0 0
8:54 am 08:54 Cloudy 44 6.7 34 1.1 68 68 WNW 16 26 29.44 997 10 16.09344 0 0
9:54 am 09:54 Cloudy 46 7.8 35 1.7 66 66 W 20 31 29.44 997 10 16.09344 0 0
10:54 am 10:54 Cloudy 48 8.9 36 2.2 63 63 WNW 22 35 29.47 998 10 16.09344 0 0
11:54 am 11:54 Mostly Cloudy 51 10.6 39 3.9 64 64 WNW 22 35 29.44 997 10 16.09344 0 0
12:39 pm 12:39 Mostly Cloudy 54 12.2 40 4.4 59 59 NW 28 44 29.47 998 10 16.09344 0 0
12:54 pm 12:54 Mostly Cloudy with Light Rain 54 12.2 41 5 62 62 NW 26 43 29.47 998 10 16.09344 0.001 0.001
1:54 pm 13:54 Cloudy 51 10.6 40 4.4 66 66 WNW 24 39 29.53 1000 10 16.09344 0.001 0.001
2:54 pm 14:54 Cloudy 51 10.6 39 3.9 64 64 W 21 33 29.53 1000 10 16.09344 0 0
3:07 pm 15:07 Cloudy 51 10.6 38 3.3 61 61 W 21 33 29.59 1002 10 16.09344 0 0
3:54 pm 15:54 Cloudy 51 10.6 38 3.3 61 61 W 28 44 29.56 1001 10 16.09344 0 0
4:54 pm 16:54 Cloudy 51 10.6 38 3.3 61 61 WNW 22 35 29.62 1003 10 16.09344 0 0
5:54 pm 17:54 Cloudy 50 10 37 2.8 61 61 WNW 25 41 29.65 1004 10 16.09344 0 0
6:51 pm 18:51 Cloudy 46 8 39 4 76 76 WNW 21 33 29.71 1006 10 16.09344 0.001 0.001
6:54 pm 18:54 Cloudy with Light Rain 47 8.3 39 3.9 74 74 WNW 23 37 29.71 1006 10 16.09344 0.001 0.001
7:08 pm 19:08 Cloudy 48 8.9 39 3.9 71 71 WNW 23 37 29.71 1006 10 16.09344 0.01 0.254
7:54 pm 19:54 Cloudy 48 8.9 38 3.3 68 68 WNW 25 41 29.74 1007 10 16.09344 0.01 0.254
8:40 pm 20:40 Mostly Cloudy 48 8.9 37 2.8 66 66 WNW 21 33 29.77 1008 10 16.09344 0 0
8:54 pm 20:54 Mostly Cloudy 48 8.9 37 2.8 66 66 WNW 21 33 29.77 1008 10 16.09344 0 0
9:38 pm 21:38 Partly Cloudy 47 8.3 37 2.8 69 69 WNW 26 43 29.77 1008 10 16.09344 0 0
9:54 pm 21:54 Partly Cloudy 47 8.3 36 2.2 66 66 WNW 22 35 29.8 1009 10 16.09344 0 0
10:54 pm 22:54 Mostly Clear 47 8.3 34 1.1 61 61 NW 22 35 29.8 1009 10 16.09344 0 0
11:54 pm 23:54 Clear 47 8.3 31 -0.6 54 54 WNW 20 31 29.83 1010 10 16.09344 0 0

Powered by AerisWeather